Wind_Speed
14 13 14 16 20 25 28 28 27 26 26 26 26 25 25 26 26 26 25 24 24 24 25 25 24 24 24 23 23 23 22 22 21 20 20 19 19 19 18 17 16 14 13 12 11 11 11 11 11 12 12 13 13 14 14 15 16 15 14 13 12 11 10
16 14 15 15 16 21 25 27 28 28 28 27 26 26 27 27 26 24 23 22 23 23 24 24 24 23 23 23 24 24 23 22 21 21 21 21 20 20 19 18 17 16 15 15 14 14 13 13 13 13 13 14 14 15 15 15 16 17 15 14 13 12 11
19 18 18 17 16 17 20 23 25 28 30 29 27 28 28 28 25 22 21 21 21 23 24 24 24 23 23 24 24 24 24 23 23 22 22 22 21 21 20 19 18 18 18 18 17 16 16 15 15 15 15 15 15 15 15 15 16 18 17 14 13 12 11
23 22 20 20 19 17 18 20 21 24 28 29 28 28 28 27 24 22 21 21 22 22 23 22 22 23 24 24 24 25 25 25 24 24 24 24 23 23 23 22 21 21 21 21 20 19 18 18 17 16 15 16 16 16 16 15 16 18 19 16 14 13 12
24 23 22 22 23 22 21 21 22 23 25 28 29 28 27 26 24 23 21 21 21 22 21 21 22 24 24 24 25 25 26 26 25 25 25 26 26 27 26 25 25 25 24 24 23 22 20 19 18 17 17 17 17 16 16 17 17 18 19 17 15 14 13
24 25 23 23 24 24 24 24 23 24 24 26 28 28 28 27 26 25 23 21 20 20 21 23 23 24 24 24 25 25 26 26 26 26 27 28 29 29 29 29 28 28 28 27 27 25 23 21 19 18 17 17 16 17 17 18 18 19 18 17 15 15 14
23 26 25 24 24 23 24 25 26 26 24 24 26 27 27 28 28 27 25 23 22 21 21 22 23 23 24 24 24 25 25 25 26 28 29 31 31 31 31 32 31 31 31 30 30 28 27 26 22 21 20 20 19 19 18 18 19 19 17 16 16 16 15
21 25 25 25 25 22 22 25 27 28 26 26 26 27 28 30 29 28 27 25 24 23 22 22 21 22 23 23 24 25 24 24 26 29 31 32 32 32 33 34 34 34 34 33 32 31 30 29 27 27 28 27 26 25 23 21 22 19 16 16 17 18 18
18 20 21 21 22 20 20 24 27 29 29 28 27 27 28 30 30 29 27 25 25 24 23 22 21 21 22 23 24 23 23 24 26 28 30 32 32 32 33 35 36 37 36 36 36 35 35 35 34 34 34 34 34 33 31 29 26 22 18 17 18 19 20
18 18 19 20 20 18 20 24 27 30 30 29 30 29 28 29 29 29 28 26 26 25 23 22 22 23 24 24 24 23 23 25 26 27 29 30 31 31 33 36 38 38 38 39 39 38 39 41 41 38 37 38 39 38 37 33 28 25 21 18 18 18 18
20 20 19 19 20 20 21 25 29 31 31 30 31 30 28 28 28 29 28 27 27 26 24 24 24 25 26 25 25 24 25 26 26 27 29 29 30 30 31 36 39 38 38 40 42 43 42 44 46 43 41 39 37 38 38 34 28 25 21 18 19 20 20
23 22 20 18 19 20 22 25 30 32 29 28 31 31 29 28 27 27 27 27 27 26 25 25 26 27 27 26 25 25 26 26 26 27 29 29 30 29 29 34 36 36 37 40 42 45 46 46 47 47 46 42 39 40 39 35 29 25 21 20 20 22 21
26 26 24 21 20 20 22 24 28 30 27 27 30 31 29 27 26 26 26 25 25 25 25 26 27 27 26 25 25 26 26 27 26 27 28 28 30 31 32 35 36 36 39 40 40 42 45 46 47 48 47 45 44 43 40 38 33 26 22 20 20 20 19
24 27 29 26 23 22 23 24 25 27 26 26 29 30 29 27 27 27 26 25 25 25 26 27 27 26 25 24 26 27 27 27 27 28 27 27 29 32 34 36 36 38 42 42 39 39 42 45 48 48 47 47 48 45 41 40 35 27 22 19 18 19 18
24 27 30 30 27 24 23 23 24 27 27 26 27 28 29 29 29 29 28 27 27 27 28 29 28 27 26 26 27 28 28 28 29 29 28 26 28 31 34 35 36 38 43 43 40 40 42 45 48 49 48 47 48 46 43 42 38 30 24 19 17 17 18
27 26 29 31 29 26 24 24 26 28 27 26 27 29 30 30 30 29 28 27 27 28 30 29 28 27 27 28 28 29 29 30 30 30 29 28 29 31 33 34 34 36 40 41 40 41 44 46 47 48 47 46 47 47 44 42 39 32 25 20 18 20 20
29 26 27 30 30 28 26 27 29 29 27 28 29 30 31 31 30 30 29 28 28 28 29 29 28 28 28 28 29 29 30 30 31 31 30 30 31 31 32 33 34 35 38 40 40 40 42 43 44 45 43 42 45 46 43 42 37 30 26 23 22 23 21
30 26 25 27 30 29 28 29 31 29 29 31 31 32 32 32 31 30 29 28 27 28 29 29 28 28 29 29 29 30 30 30 31 32 32 32 32 32 32 33 35 36 38 39 37 36 37 37 38 38 38 38 41 43 42 41 35 29 27 25 24 24 21
31 26 25 26 29 30 29 31 33 32 31 33 33 33 33 32 32 30 29 28 29 29 29 29 28 28 28 28 28 28 28 29 30 31 32 32 33 34 34 34 36 38 38 38 35 33 33 34 33 33 34 36 38 39 40 40 35 27 26 25 24 22 19
32 28 25 25 30 31 30 33 35 33 33 33 34 34 33 33 32 31 31 31 30 30 29 27 26 25 24 24 24 24 25 26 28 30 30 31 33 34 34 35 36 37 38 38 35 33 33 33 32 31 32 34 36 37 37 37 32 26 24 24 23 21 19
32 29 26 25 30 32 31 32 34 36 35 35 36 35 34 34 34 33 33 33 31 30 27 24 23 21 21 21 21 21 22 23 24 25 25 26 28 29 30 33 34 36 38 39 37 33 32 33 33 32 31 32 33 33 31 29 27 25 24 24 22 20 20
34 32 29 27 28 32 34 33 34 37 37 36 36 36 35 35 35 35 34 33 31 28 24 21 21 20 20 20 19 20 20 20 21 22 22 23 24 25 27 30 32 35 37 39 37 33 31 31 32 31 29 28 29 28 25 23 23 24 25 24 22 22 22
36 34 32 29 28 32 35 33 32 36 38 36 36 36 35 36 36 35 34 31 29 26 23 21 21 21 20 19 19 19 20 20 21 22 22 23 24 25 27 29 32 35 37 38 37 33 31 31 30 28 26 24 24 24 22 22 23 25 25 24 23 23 24
38 35 33 31 29 32 35 32 31 37 39 36 36 35 35 35 35 33 30 29 27 25 23 23 22 21 20 19 19 19 19 19 20 20 22 24 25 26 28 30 33 36 36 37 35 31 29 30 28 26 24 21 20 21 22 23 25 26 25 24 25 25 26
38 36 35 33 31 32 35 34 33 38 40 36 35 35 34 34 33 30 29 28 27 25 24 23 22 21 20 19 19 20 20 19 20 21 23 24 26 28 29 31 34 35 35 36 34 29 28 29 28 26 24 21 20 22 23 25 27 27 25 25 26 27 28
37 37 37 35 33 33 34 33 35 40 39 36 35 34 34 34 34 32 31 29 27 26 25 24 23 21 20 20 21 21 21 21 22 23 24 25 27 29 31 33 35 35 34 35 32 29 30 31 29 26 23 22 23 25 26 28 28 25 23 25 27 27 28
37 37 36 35 34 33 32 33 38 41 39 36 36 36 36 36 35 34 31 28 27 27 26 25 23 21 21 22 22 23 23 23 24 25 25 26 27 30 32 33 34 34 33 33 32 31 31 30 29 27 25 25 26 27 27 28 26 24 23 25 27 27 27
37 37 35 32 31 32 33 36 40 41 38 36 36 35 35 34 33 31 29 28 28 28 27 25 22 22 22 22 22 23 23 24 24 25 27 27 28 30 32 33 33 32 31 32 33 32 30 30 30 29 27 27 28 28 27 26 26 25 24 25 26 26 27
34 33 31 29 31 34 36 39 41 40 37 36 35 34 33 32 30 30 30 30 30 29 27 24 23 22 21 21 22 23 24 25 26 27 28 29 29 30 32 33 32 30 29 30 32 31 29 30 32 31 29 29 29 27 26 26 26 26 25 25 26 26 27
30 30 30 33 36 38 38 38 37 36 34 33 33 32 31 30 31 32 33 32 31 29 26 24 22 21 21 22 24 25 27 28 28 29 29 29 30 31 32 32 30 28 28 28 29 29 29 32 34 33 30 29 27 26 27 27 27 27 26 25 26 27 28
28 30 33 36 36 35 32 30 29 29 29 29 29 29 30 31 33 34 33 33 32 29 26 24 23 23 25 27 28 29 29 29 29 29 29 29 30 31 32 31 28 26 27 27 29 30 31 34 35 33 31 29 27 28 29 29 29 28 25 24 27 28 27
29 30 31 32 31 30 28 27 26 27 28 28 28 28 30 31 32 32 32 31 30 28 27 27 28 30 32 32 31 30 30 29 29 30 30 29 29 31 32 29 26 26 27 28 30 31 33 35 36 33 31 29 28 29 29 30 29 27 25 25 26 26 25
31 31 30 29 28 28 27 27 27 28 29 28 28 29 29 29 29 29 28 27 27 27 28 30 31 32 33 33 32 31 29 29 29 30 30 29 29 30 31 28 26 27 28 29 31 33 35 36 35 32 29 28 28 29 30 29 27 26 25 24 22 21 22
33 32 32 31 30 28 27 27 29 29 29 29 29 28 27 25 25 25 26 26 26 27 28 30 31 33 33 33 32 30 29 30 30 30 29 28 29 31 31 28 27 27 28 30 32 33 35 34 32 30 28 28 28 29 28 26 25 24 22 19 19 20 21
34 34 33 32 30 28 27 28 28 28 29 30 30 27 24 23 23 24 25 26 26 27 28 29 31 32 32 32 30 30 30 30 29 28 27 28 30 32 31 29 27 27 29 31 32 33 33 33 31 29 28 28 28 27 25 24 25 22 18 17 19 20 20
30 29 28 26 25 24 23 23 22 22 24 25 25 24 23 23 23 23 23 24 25 26 28 29 30 31 31 30 29 29 29 28 27 26 26 28 30 31 31 28 28 30 33 33 33 34 34 34 32 30 29 28 28 26 25 23 21 18 15 17 19 19 20
24 23 21 21 20 20 19 19 19 20 20 21 22 22 22 21 21 21 22 23 24 26 28 29 29 30 30 29 29 28 26 25 25 25 25 27 28 29 29 29 30 33 35 34 33 34 34 33 31 30 29 28 27 26 24 21 18 16 16 18 18 19 20
18 18 17 17 17 17 18 18 18 19 19 20 21 21 21 22 22 23 24 25 26 27 28 28 28 28 28 28 26 25 23 24 24 25 25 26 25 26 30 32 33 35 36 37 37 36 35 32 30 29 28 27 25 24 22 19 18 18 18 18 18 19 21
Wind_Direction
250 253 245 243 239 236 236 234 234 233 229 225 223 219 216 215 214 213 211 210 209 208 208 209 208 207 206 206 205 204 204 205 205 205 205 205 206 208 212 216 221 227 230 236 244 253 265 275 284 295 302 309 315 319 325 329 329 329 327 325 322 320 320
243 242 236 235 233 232 236 235 232 232 232 229 226 223 220 219 217 215 214 213 212 212 212 213 213 212 212 210 209 209 209 209 210 210 210 210 211 213 216 219 224 231 235 241 248 254 262 270 276 285 293 300 305 311 317 322 323 322 320 318 315 313 315
241 236 230 228 227 228 233 234 231 229 231 232 228 226 225 223 221 218 218 217 217 217 216 217 217 217 217 216 214 214 214 214 216 217 217 219 220 222 225 228 232 239 243 248 252 256 261 266 272 278 285 291 297 304 310 315 317 316 313 310 308 307 308
240 237 231 224 223 225 228 232 231 228 229 231 230 231 231 229 224 222 222 222 222 222 222 222 222 221 222 221 220 220 219 220 222 223 225 227 229 231 233 235 238 243 247 249 252 255 258 261 266 272 278 284 291 297 303 307 309 311 308 304 302 301 301
237 236 233 225 221 222 223 225 227 227 227 227 228 231 232 229 224 222 222 223 224 225 226 227 226 225 226 225 225 224 223 225 228 230 231 233 235 235 236 238 240 243 247 248 250 252 253 256 262 267 272 278 284 291 297 300 302 305 303 299 297 297 298
238 236 233 230 227 226 226 225 224 225 226 225 226 229 229 226 224 222 221 221 222 222 224 226 226 227 228 227 228 228 228 229 232 234 235 235 237 237 238 240 242 245 248 249 251 252 253 255 261 266 269 271 275 282 289 293 297 299 298 295 294 293 293
247 243 241 240 240 237 232 227 223 223 223 223 225 226 225 225 226 225 224 223 222 220 222 225 228 229 229 229 230 230 231 232 235 237 237 238 240 240 241 243 245 247 249 250 252 253 254 256 258 263 266 264 267 274 280 288 293 294 292 294 295 293 293
255 251 250 249 249 245 235 227 223 222 220 220 224 224 220 221 223 224 225 225 224 224 224 225 228 230 230 231 231 232 233 234 236 239 240 242 244 244 245 248 249 250 251 252 253 253 255 255 257 264 267 264 267 273 278 286 290 287 288 293 296 297 300
254 251 250 248 249 245 231 223 221 223 222 221 226 226 221 220 221 222 225 225 224 226 228 228 230 231 230 231 232 234 234 235 238 240 243 245 246 247 250 253 253 253 253 254 254 255 257 257 261 268 268 267 275 280 282 284 282 279 283 290 293 297 301
251 250 246 241 244 243 232 223 220 224 227 226 228 228 223 221 220 220 222 222 222 224 226 228 229 231 231 232 233 234 235 237 240 244 248 248 249 251 255 257 257 258 259 258 258 259 260 260 266 273 273 274 279 282 283 283 275 272 278 283 287 292 295
254 252 245 238 241 241 233 226 223 226 230 230 230 228 225 222 221 220 220 220 223 224 222 223 227 230 232 233 234 236 238 241 244 248 251 252 255 257 258 258 258 260 264 264 263 262 263 264 268 275 279 280 279 278 281 284 276 267 271 278 284 284 281
259 253 246 240 239 239 234 228 226 226 226 228 229 228 226 226 223 222 223 223 225 224 220 222 228 232 233 233 234 237 241 245 248 253 256 260 265 265 262 261 262 264 269 271 268 265 266 268 269 273 278 281 280 277 279 285 280 264 265 278 282 278 273
264 258 251 245 242 241 237 233 229 223 218 221 226 227 227 227 223 224 228 228 227 226 224 228 231 234 234 232 235 240 245 250 254 258 262 266 271 271 268 269 272 272 273 274 272 268 269 271 272 272 275 277 280 281 281 285 282 265 262 279 281 274 270
267 260 254 250 248 244 242 241 232 218 210 215 222 224 225 223 221 225 229 229 229 229 230 232 233 235 235 235 238 243 248 253 257 259 262 264 268 270 268 269 272 272 272 272 273 272 272 273 272 272 275 276 278 282 283 284 283 268 261 274 279 274 268
265 260 254 250 248 242 241 241 225 208 205 211 217 220 221 221 222 225 228 228 228 230 232 233 233 235 237 237 240 244 247 251 253 256 258 258 260 263 265 267 269 271 271 272 275 277 275 274 273 273 278 279 277 279 282 283 283 273 263 266 271 269 261
260 264 256 247 244 240 237 229 211 202 202 206 212 216 219 221 223 226 227 227 228 230 231 232 233 234 236 238 241 244 247 250 252 254 255 254 255 258 262 267 269 272 273 273 275 277 275 274 274 275 280 282 278 277 280 282 282 275 261 258 262 259 254
256 267 261 247 239 236 229 215 204 201 201 204 209 214 217 220 221 223 224 224 226 229 230 231 231 233 237 240 242 246 249 252 254 255 256 255 256 257 260 265 269 272 274 273 272 274 274 274 274 274 278 280 278 277 276 278 281 272 258 258 259 254 253
255 261 260 244 232 229 223 211 206 205 203 205 209 213 215 218 219 220 220 220 222 226 228 230 232 236 240 242 245 248 251 254 255 257 259 259 260 261 260 263 266 269 273 274 272 272 273 274 273 272 273 275 275 275 273 275 277 267 256 259 257 252 255
252 251 251 241 230 226 222 213 210 207 205 206 210 213 216 217 218 219 218 217 220 224 228 231 234 237 240 243 247 252 255 257 259 261 263 263 264 264 264 265 267 270 273 274 272 269 270 273 274 269 266 268 270 270 268 271 272 261 256 257 251 248 256
246 245 245 238 230 227 224 218 212 206 204 206 210 213 216 217 218 218 216 216 220 224 226 229 233 237 241 247 253 258 260 262 263 265 266 266 266 267 268 269 269 271 272 271 271 270 268 270 270 264 260 262 264 265 266 268 264 255 252 251 245 247 258
243 242 242 238 231 227 225 222 215 208 206 208 209 212 214 216 217 217 216 217 219 222 224 229 236 242 248 253 258 263 265 266 267 267 267 267 268 270 271 272 271 271 271 270 270 269 266 267 268 263 258 258 260 263 265 262 256 248 245 244 243 249 258
242 241 242 241 233 224 222 224 219 211 209 210 210 212 213 215 217 216 216 217 219 222 228 236 245 250 252 256 262 267 271 272 271 271 271 271 273 275 275 276 275 273 272 271 270 269 268 269 267 264 261 260 260 260 257 251 247 242 238 237 243 251 258
241 241 243 244 236 224 223 227 221 211 210 211 212 214 215 215 215 214 215 219 224 229 236 243 249 253 256 261 267 271 275 278 276 276 277 277 280 281 280 280 278 275 273 271 269 269 269 267 264 260 258 259 258 251 242 241 242 236 231 235 244 252 259
239 240 242 243 240 229 226 229 222 211 209 211 213 216 216 215 215 215 219 225 231 235 241 247 252 256 258 263 268 273 278 281 280 280 281 282 283 283 281 279 277 276 274 270 268 268 265 262 260 256 252 250 246 236 230 236 237 229 226 235 245 252 260
236 239 241 241 242 236 232 232 222 210 208 211 214 216 218 216 216 219 223 227 231 236 244 250 252 254 257 262 268 274 280 283 285 286 286 286 286 283 281 280 277 276 273 268 265 263 260 258 257 252 242 232 226 225 227 231 230 223 225 237 245 252 261
233 237 237 237 239 240 237 231 218 209 208 211 213 216 218 218 218 221 224 227 233 239 246 249 250 251 258 264 270 276 283 287 290 291 290 289 287 284 282 280 279 277 272 267 262 256 253 255 253 242 228 218 217 221 224 224 224 225 230 240 247 256 265
228 230 231 233 236 237 232 221 210 206 207 210 212 214 216 217 218 222 225 230 236 241 245 247 248 254 260 267 274 281 289 293 294 293 293 291 288 285 283 282 281 278 272 265 258 250 247 248 243 229 218 213 216 220 220 220 223 230 237 243 251 260 268
226 227 228 229 228 226 221 212 206 206 209 211 213 215 217 218 220 223 227 233 237 242 245 246 250 257 264 271 281 288 293 295 295 295 294 292 289 286 283 283 282 278 270 262 255 248 243 239 230 219 212 213 216 218 218 219 225 234 242 249 256 262 268
225 226 223 218 212 210 209 206 204 206 209 211 213 216 217 219 222 226 231 235 239 242 245 248 254 262 270 280 289 294 296 296 295 295 294 292 290 286 284 284 283 277 270 263 255 247 239 229 220 212 209 213 216 217 219 223 231 239 246 252 258 263 268
215 213 207 203 202 201 201 202 204 205 207 210 213 217 219 222 226 230 233 236 239 242 245 251 259 269 279 288 293 296 296 295 294 293 292 292 289 284 283 284 281 273 267 261 252 242 230 221 216 211 209 212 215 219 223 229 236 242 246 253 259 263 266
199 199 197 196 196 194 194 198 202 205 207 209 211 215 220 224 227 230 233 236 239 243 248 255 265 277 286 291 294 296 295 293 292 292 292 291 287 283 283 283 277 268 263 254 244 234 225 220 218 213 209 211 217 222 227 233 239 241 245 251 257 261 265
185 187 189 190 189 188 189 193 197 202 207 210 213 217 220 224 227 231 234 237 241 246 254 263 273 281 285 287 290 294 293 291 291 293 292 289 284 281 282 280 271 263 256 246 237 229 223 221 219 214 211 213 220 227 233 239 242 243 243 246 252 259 267
180 183 185 188 190 192 195 200 205 207 209 214 221 225 226 228 231 234 238 243 250 259 266 273 279 283 285 287 290 292 291 291 293 293 290 285 281 280 279 274 265 258 251 242 234 229 226 223 219 215 214 218 224 232 236 240 244 246 245 246 252 263 270
176 180 183 188 194 199 205 212 217 223 228 232 232 231 232 237 241 246 251 259 267 273 277 279 282 284 286 287 288 289 289 291 292 290 286 281 278 277 274 267 259 253 244 236 231 228 225 222 218 216 219 223 230 235 238 243 250 251 249 253 263 269 273
174 177 180 184 189 193 199 205 213 223 233 235 234 235 243 252 258 262 266 270 275 278 280 282 283 285 285 285 286 288 289 290 288 285 281 277 275 274 270 263 256 246 235 229 227 224 222 221 219 219 224 229 234 242 250 255 252 248 251 262 269 273 280
173 177 181 185 189 192 198 204 212 221 228 232 237 246 256 262 266 269 272 275 279 282 283 284 285 284 283 284 286 287 287 286 283 280 278 276 277 274 268 262 255 245 235 229 226 223 221 221 222 223 228 235 240 249 258 261 255 251 261 270 273 280 291
178 183 188 195 202 207 213 221 228 235 241 245 250 256 261 265 268 272 275 279 282 284 284 284 283 282 283 285 285 284 282 279 276 274 275 277 277 271 262 255 247 239 232 229 226 223 222 223 225 226 231 242 251 256 260 263 265 268 273 276 280 290 297
191 197 203 211 219 225 232 240 245 250 255 258 260 264 268 271 274 277 280 282 284 284 284 283 282 282 283 282 281 279 276 273 273 273 275 275 272 263 255 250 241 232 226 222 220 220 222 225 228 231 236 245 254 257 257 260 266 270 273 278 285 293 299
Height
3153 3154 3155 3157 3158 3160 3161 3162 3164 3165 3166 3167 3169 3170 3172 3173 3174 3176 3177 3179 3180 3182 3183 3184 3186 3187 3188 3190 3191 3192 3193 3194 3195 3196 3197 3198 3199 3199 3200 3200 3200 3200 3200 3200 3200 3200 3200 3200 3199 3199 3199 3199 3198 3198 3197 3197 3196 3195 3194 3193 3192 3191 3190
3150 3151 3152 3154 3155 3156 3158 3159 3161 3163 3164 3165 3167 3168 3169 3171 3172 3174 3176 3177 3179 3180 3181 3183 3184 3186 3187 3188 3189 3190 3191 3192 3193 3194 3195 3196 3197 3197 3198 3198 3199 3199 3199 3198 3198 3198 3198 3198 3198 3197 3197 3197 3196 3196 3196 3195 3195 3194 3193 3192 3190 3189 3188
3148 3149 3150 3151 3152 3154 3155 3157 3158 3160 3161 3162 3164 3165 3167 3168 3170 3172 3174 3176 3177 3178 3179 3180 3182 3184 3185 3186 3187 3188 3190 3191 3191 3192 3193 3194 3195 3195 3196 3196 3197 3197 3197 3196 3196 3196 3196 3196 3196 3195 3195 3195 3194 3194 3194 3193 3193 3192 3191 3190 3189 3188 3187
3145 3146 3148 3149 3150 3151 3153 3154 3155 3156 3158 3159 3161 3163 3164 3166 3169 3171 3172 3173 3175 3176 3177 3179 3180 3182 3183 3184 3185 3186 3187 3189 3189 3190 3191 3192 3193 3193 3194 3194 3195 3195 3194 3194 3194 3194 3194 3193 3193 3193 3193 3192 3192 3192 3192 3191 3191 3190 3189 3188 3187 3186 3185
3142 3144 3145 3146 3148 3149 3149 3151 3152 3153 3155 3157 3159 3160 3162 3165 3167 3168 3170 3171 3172 3174 3175 3177 3178 3179 3180 3181 3183 3184 3185 3186 3187 3188 3189 3189 3190 3191 3191 3192 3192 3192 3192 3191 3191 3191 3191 3191 3191 3191 3191 3190 3190 3190 3190 3189 3189 3188 3187 3187 3186 3185 3184
3140 3141 3142 3144 3145 3146 3147 3148 3149 3151 3152 3154 3156 3158 3160 3162 3164 3165 3167 3169 3170 3172 3173 3174 3175 3176 3178 3179 3180 3182 3183 3184 3185 3186 3186 3187 3187 3188 3189 3189 3189 3189 3189 3189 3188 3188 3189 3189 3189 3189 3188 3188 3187 3187 3187 3187 3186 3186 3185 3185 3184 3183 3182
3137 3138 3139 3141 3142 3143 3144 3145 3147 3148 3150 3152 3154 3155 3158 3159 3161 3163 3165 3166 3168 3169 3170 3171 3172 3174 3175 3177 3178 3179 3180 3182 3182 3183 3184 3184 3185 3186 3186 3186 3186 3186 3186 3186 3186 3186 3186 3186 3186 3186 3185 3185 3184 3184 3184 3184 3184 3184 3183 3183 3182 3181 3180
3134 3135 3136 3138 3139 3140 3141 3142 3144 3145 3147 3149 3150 3152 3154 3156 3158 3160 3161 3163 3165 3166 3167 3169 3170 3171 3173 3174 3175 3176 3178 3179 3180 3180 3181 3181 3182 3183 3183 3183 3183 3182 3183 3183 3182 3182 3182 3182 3183 3182 3182 3182 3181 3181 3182 3183 3183 3182 3181 3181 3180 3180 3179
3132 3132 3133 3134 3135 3136 3138 3139 3141 3142 3144 3146 3147 3149 3151 3152 3155 3157 3158 3160 3162 3163 3165 3167 3168 3169 3170 3171 3172 3174 3176 3176 3177 3177 3178 3178 3179 3180 3180 3179 3179 3179 3179 3179 3178 3178 3178 3177 3178 3178 3178 3178 3178 3178 3179 3180 3180 3180 3179 3179 3178 3178 3177
3129 3130 3130 3131 3132 3133 3135 3136 3137 3139 3141 3143 3144 3146 3148 3150 3152 3154 3156 3158 3159 3161 3163 3164 3165 3166 3167 3168 3170 3172 3173 3173 3174 3174 3174 3175 3177 3178 3178 3176 3175 3175 3176 3175 3175 3175 3174 3173 3173 3173 3174 3175 3175 3175 3175 3176 3177 3176 3176 3176 3175 3175 3175
3127 3127 3128 3129 3129 3130 3131 3132 3134 3136 3138 3139 3141 3143 3145 3147 3149 3151 3153 3155 3156 3158 3160 3161 3162 3163 3164 3166 3167 3169 3170 3170 3171 3171 3171 3172 3174 3175 3175 3172 3171 3172 3172 3171 3171 3171 3170 3169 3169 3169 3169 3170 3171 3171 3171 3171 3172 3173 3172 3172 3172 3172 3172
3124 3125 3126 3126 3127 3127 3128 3129 3130 3132 3134 3137 3138 3140 3142 3144 3146 3148 3150 3152 3154 3155 3157 3158 3159 3160 3161 3163 3165 3166 3166 3167 3168 3168 3168 3169 3170 3170 3169 3167 3167 3168 3168 3167 3167 3166 3166 3165 3165 3165 3165 3166 3166 3167 3167 3168 3169 3169 3169 3168 3169 3169 3169
3120 3122 3123 3124 3125 3125 3126 3126 3127 3129 3132 3134 3135 3137 3139 3142 3144 3145 3147 3149 3151 3152 3154 3155 3156 3157 3159 3161 3162 3162 3163 3164 3165 3165 3165 3166 3166 3165 3165 3164 3163 3163 3163 3163 3163 3162 3162 3161 3161 3161 3161 3162 3162 3162 3163 3164 3165 3166 3165 3165 3165 3166 3166
3118 3118 3119 3121 3122 3122 3123 3124 3125 3127 3129 3131 3132 3135 3137 3139 3141 3142 3144 3146 3148 3149 3150 3151 3153 3154 3156 3158 3159 3159 3160 3161 3162 3162 3162 3163 3162 3161 3161 3161 3160 3159 3158 3158 3159 3159 3158 3157 3157 3157 3158 3158 3158 3159 3160 3159 3160 3162 3162 3162 3162 3163 3163
3114 3115 3115 3117 3119 3119 3120 3121 3122 3124 3126 3128 3130 3132 3134 3136 3138 3139 3141 3143 3145 3146 3147 3148 3150 3152 3154 3155 3155 3156 3157 3157 3158 3158 3158 3159 3158 3157 3157 3157 3157 3155 3154 3155 3155 3154 3154 3153 3153 3153 3154 3154 3154 3155 3156 3156 3156 3158 3159 3159 3159 3160 3160
3111 3111 3112 3113 3115 3116 3117 3118 3120 3121 3123 3125 3127 3129 3131 3132 3134 3136 3138 3140 3142 3143 3144 3145 3147 3149 3150 3151 3152 3152 3153 3153 3154 3154 3154 3155 3154 3154 3153 3153 3152 3152 3151 3151 3151 3150 3149 3149 3149 3149 3150 3150 3150 3151 3152 3152 3153 3155 3155 3155 3156 3156 3156
3108 3108 3108 3110 3111 3112 3114 3115 3117 3118 3120 3122 3124 3126 3128 3129 3131 3133 3135 3137 3138 3140 3141 3143 3144 3146 3147 3148 3148 3149 3149 3149 3150 3150 3150 3150 3150 3150 3151 3150 3149 3148 3147 3146 3145 3145 3145 3145 3145 3146 3147 3147 3146 3146 3148 3149 3150 3151 3152 3152 3152 3153 3153
3105 3105 3105 3106 3108 3109 3110 3112 3114 3115 3117 3119 3121 3123 3124 3126 3128 3130 3131 3133 3135 3137 3138 3139 3141 3142 3143 3144 3145 3145 3146 3146 3146 3146 3147 3147 3147 3147 3148 3147 3145 3144 3142 3141 3140 3140 3141 3141 3141 3142 3143 3143 3142 3142 3144 3145 3147 3148 3149 3149 3149 3150 3150
3101 3101 3101 3103 3104 3106 3107 3109 3110 3112 3114 3116 3118 3119 3121 3123 3125 3127 3129 3131 3132 3133 3135 3136 3138 3139 3140 3141 3141 3142 3143 3143 3143 3143 3143 3144 3144 3143 3144 3143 3142 3141 3139 3137 3136 3136 3136 3137 3137 3138 3138 3138 3138 3139 3140 3142 3143 3145 3146 3145 3146 3147 3147
3097 3097 3098 3099 3101 3102 3104 3105 3108 3109 3111 3113 3114 3116 3118 3120 3122 3124 3126 3127 3129 3130 3132 3134 3135 3136 3137 3138 3138 3139 3139 3139 3139 3139 3139 3140 3139 3139 3139 3138 3137 3137 3135 3133 3132 3132 3132 3133 3134 3133 3133 3134 3134 3135 3136 3138 3140 3142 3143 3143 3144 3144 3144
3093 3094 3095 3096 3097 3099 3100 3102 3105 3106 3108 3109 3110 3112 3114 3116 3118 3120 3122 3124 3126 3128 3129 3131 3132 3133 3134 3134 3134 3135 3135 3135 3135 3135 3135 3135 3135 3134 3134 3133 3132 3132 3130 3129 3128 3128 3129 3130 3130 3129 3128 3129 3130 3131 3133 3135 3136 3139 3140 3140 3141 3142 3142
3088 3089 3090 3092 3094 3095 3097 3099 3101 3103 3104 3106 3107 3109 3111 3113 3115 3117 3119 3121 3123 3125 3127 3128 3129 3129 3130 3130 3130 3131 3131 3131 3131 3131 3131 3131 3130 3130 3130 3129 3128 3127 3125 3124 3124 3123 3124 3125 3124 3123 3123 3124 3125 3127 3130 3131 3133 3135 3137 3138 3138 3138 3138
3084 3085 3086 3088 3090 3092 3094 3095 3098 3100 3101 3103 3104 3106 3108 3110 3112 3114 3116 3118 3120 3122 3123 3124 3125 3126 3126 3126 3126 3126 3127 3127 3127 3127 3127 3127 3126 3126 3125 3124 3123 3121 3120 3119 3119 3118 3119 3119 3118 3117 3118 3120 3122 3125 3127 3128 3129 3132 3134 3134 3134 3134 3134
3079 3081 3083 3084 3086 3088 3090 3092 3094 3096 3097 3099 3101 3103 3106 3108 3110 3112 3114 3115 3117 3119 3120 3121 3121 3122 3122 3122 3122 3122 3123 3123 3123 3123 3123 3123 3122 3121 3121 3119 3118 3116 3115 3114 3114 3114 3115 3114 3113 3113 3115 3117 3119 3121 3123 3124 3126 3128 3130 3130 3131 3131 3131
3075 3077 3079 3081 3082 3084 3086 3088 3090 3091 3093 3095 3098 3101 3103 3105 3107 3109 3111 3113 3114 3115 3116 3117 3118 3118 3118 3118 3118 3119 3119 3119 3119 3119 3119 3119 3117 3116 3115 3114 3113 3112 3111 3110 3110 3111 3111 3110 3110 3111 3113 3114 3116 3118 3119 3121 3122 3124 3126 3127 3127 3128 3128
3070 3072 3074 3077 3079 3081 3082 3084 3086 3088 3090 3093 3095 3098 3100 3102 3104 3106 3108 3109 3110 3112 3113 3113 3114 3115 3115 3114 3115 3115 3115 3115 3115 3115 3115 3114 3113 3111 3110 3109 3108 3107 3106 3106 3106 3106 3106 3106 3107 3108 3109 3111 3113 3115 3116 3118 3120 3122 3124 3124 3124 3125 3126
3065 3067 3070 3072 3074 3077 3078 3080 3082 3085 3088 3090 3093 3095 3097 3099 3101 3102 3104 3106 3107 3108 3109 3110 3110 3111 3111 3111 3111 3111 3111 3111 3111 3110 3110 3109 3108 3107 3105 3104 3103 3102 3102 3101 3101 3101 3102 3103 3104 3105 3106 3108 3110 3112 3113 3115 3117 3119 3120 3121 3122 3122 3123
3060 3063 3065 3067 3070 3072 3074 3077 3079 3082 3084 3087 3089 3092 3094 3096 3097 3099 3101 3102 3103 3104 3105 3106 3107 3107 3107 3107 3108 3108 3108 3107 3106 3106 3105 3104 3103 3102 3100 3099 3098 3097 3097 3097 3096 3096 3097 3099 3100 3101 3103 3105 3107 3108 3111 3113 3114 3115 3117 3118 3119 3119 3119
3056 3059 3061 3064 3067 3069 3071 3074 3076 3078 3081 3084 3086 3088 3090 3092 3094 3096 3097 3098 3099 3101 3101 3102 3103 3103 3104 3104 3104 3104 3104 3103 3102 3101 3100 3100 3099 3097 3096 3095 3094 3093 3092 3092 3092 3093 3094 3095 3096 3098 3100 3102 3104 3106 3108 3110 3111 3112 3114 3115 3116 3116 3116
3052 3054 3057 3061 3063 3066 3068 3070 3073 3075 3078 3080 3083 3085 3087 3089 3091 3092 3094 3094 3095 3097 3097 3098 3099 3100 3100 3100 3100 3100 3100 3099 3098 3097 3096 3095 3095 3093 3092 3091 3090 3089 3088 3088 3089 3089 3090 3091 3092 3094 3098 3100 3102 3104 3106 3107 3108 3110 3111 3112 3112 3112 3112
3050 3053 3055 3058 3061 3064 3067 3069 3072 3074 3076 3078 3081 3083 3085 3086 3088 3089 3089 3090 3091 3092 3093 3094 3095 3096 3096 3097 3097 3096 3095 3095 3095 3094 3093 3092 3090 3089 3088 3086 3086 3085 3085 3085 3086 3087 3088 3088 3090 3092 3095 3097 3099 3101 3102 3104 3105 3106 3108 3109 3109 3109 3109
3049 3052 3055 3058 3060 3063 3065 3067 3070 3072 3073 3075 3078 3081 3083 3084 3084 3085 3086 3087 3088 3089 3089 3090 3091 3091 3091 3092 3093 3092 3091 3091 3091 3090 3089 3088 3087 3085 3084 3083 3082 3082 3082 3083 3084 3085 3086 3086 3088 3090 3093 3095 3097 3099 3100 3101 3102 3103 3105 3106 3106 3106 3106
3048 3050 3054 3056 3059 3061 3063 3066 3068 3069 3071 3073 3077 3080 3081 3081 3082 3083 3083 3084 3085 3085 3086 3086 3086 3086 3087 3087 3088 3088 3088 3088 3087 3086 3085 3084 3083 3081 3080 3080 3079 3079 3079 3081 3082 3082 3083 3084 3086 3089 3091 3094 3096 3096 3097 3099 3100 3101 3102 3103 3103 3103 3103
3047 3049 3052 3054 3056 3059 3063 3065 3067 3068 3070 3072 3075 3077 3078 3079 3080 3080 3080 3081 3081 3081 3082 3082 3082 3082 3083 3084 3084 3084 3084 3084 3083 3082 3081 3080 3078 3077 3076 3076 3076 3077 3078 3079 3079 3080 3082 3083 3085 3088 3090 3091 3092 3092 3094 3096 3097 3099 3099 3099 3099 3099 3100
3046 3049 3051 3053 3055 3058 3061 3063 3064 3065 3067 3069 3072 3074 3076 3076 3076 3077 3077 3078 3078 3078 3078 3078 3078 3079 3080 3080 3081 3081 3080 3079 3078 3077 3077 3075 3074 3073 3073 3073 3074 3075 3075 3076 3077 3079 3081 3082 3084 3086 3087 3087 3088 3089 3091 3092 3094 3096 3096 3096 3096 3096 3096
3047 3049 3051 3053 3055 3057 3059 3061 3062 3063 3065 3066 3069 3071 3072 3072 3073 3073 3074 3074 3075 3075 3075 3075 3075 3076 3076 3077 3077 3076 3075 3075 3074 3073 3072 3071 3071 3070 3070 3070 3071 3072 3072 3074 3076 3078 3079 3080 3081 3083 3084 3084 3086 3087 3088 3089 3091 3092 3092 3092 3093 3092 3091
3048 3050 3052 3053 3055 3057 3058 3059 3060 3062 3063 3065 3066 3068 3068 3069 3069 3070 3070 3071 3071 3071 3071 3072 3072 3072 3072 3072 3072 3071 3071 3070 3069 3069 3068 3068 3068 3068 3067 3067 3067 3068 3070 3073 3074 3076 3077 3078 3079 3080 3081 3082 3084 3085 3085 3086 3087 3087 3088 3088 3088 3088 3087
3047 3049 3051 3053 3054 3055 3056 3057 3058 3060 3061 3062 3063 3064 3065 3065 3065 3066 3066 3067 3067 3068 3068 3068 3069 3068 3067 3067 3067 3066 3066 3066 3065 3065 3065 3065 3065 3065 3064 3064 3064 3065 3068 3070 3071 3072 3073 3075 3076 3077 3078 3080 3081 3082 3082 3082 3083 3083 3084 3084 3084 3083 3083